Hourly Data Report for September 26, 2017

All times are specified in Local Standard Time (LST). Add 1 hour to adjust for Daylight Saving Time where and when it is observed.

PORT ALBERNI (AUT)
BRITISH COLUMBIA

49°18'59.700" N
124°55'36.600" W
76.20 m
1036B06
71475
WQC

Related Data

No related data is available for this station

Download Data

Hourly Data (September 2017)
Hourly Data Report for September 26, 2017
Temp Definition
°C
Dew Point Temp Definition
°C
Rel Hum Definition
%
Wind Dir Definition
10's deg

Wind Spd Definition
km/h
Visibility Definition
km
Stn Press Definition
kPa
Hmdx Definition


Wind Chill Definition


Weather Definition


TIME
00:00 13.9 13.5 98 3 11   101.19     LegendNANA
01:00 14.4 14.0 98 32 3   101.24     LegendNANA
02:00 14.5 14.1 97 33 2   101.26     LegendNANA
03:00 14.3 14.0 98 30 4   101.28     LegendNANA
04:00 14.3 13.9 98 22 3   101.29     LegendNANA
05:00 14.2 13.9 98 13 2   101.28     LegendNANA
06:00 14.3 14.0 98 2 1   101.33     LegendNANA
07:00 14.2 13.9 98 16 2   101.36     LegendNANA
08:00 14.6 13.6 94 9 2   101.40     LegendNANA
09:00 16.1 13.5 85 33 2   101.38     LegendNANA
10:00 16.7 13.1 80 4 2   101.37     LegendNANA
11:00 19.0 13.0 68 11 4   101.39     LegendNANA
12:00 19.4 13.7 70 11 12   101.38     LegendNANA
13:00 20.2 13.2 64 10 9   101.34     LegendNANA
14:00 21.1 12.6 58 9 5   101.30     LegendNANA
15:00 22.3 12.6 54 6 4   101.23 25   LegendNANA
16:00 22.1 12.6 55 13 7   101.19 25   LegendNANA
17:00 21.2 12.9 59 13 6   101.16     LegendNANA
18:00 17.2 13.2 77 17 4   101.16     LegendNANA
19:00 14.4 12.8 90 29 2   101.18     LegendNANA
20:00 12.9 12.0 94 0 1   101.20     LegendNANA
21:00 12.1 11.5 96 0 1   101.21     LegendNANA
22:00 11.1 10.5 96 1 1   101.24     LegendNANA
23:00 10.7 10.3 97 31 3   101.25     LegendNANA

Notes on Data Quality.

Legend

  • E = Estimated
  • M = Missing
  • NA = Not Available
  • ‡ = Partner data that is not subject to review by the National Climate Archives
Date modified: